Notices

What's New in latest Release from April 7th, 2021:

- Updated Glossary, including Speed of Maximum Gust, and Total Hourly Precipitation

- Updated national and regional climate services offices contacts and prices information

- Addition of station inventory lists for 1981-2010, 1971-2000, and 1961-1990 Normals.

If you haven't already, please take our survey and provide feedback about our website: https://eccc.sondage-survey.ca/f/LanguageSelection.aspx?s=442ca660-fcf1-47c0-95a9-59707d6fd709

Hourly Data Report for May 10, 2021

TORONTO CITY
ONTARIO
Current Station Operator: ECCC - MSC

43°40'00.000" N
79°24'00.000" W
112.50 m
6158355
71508
XTO

Download Data

Hourly Data (May 2021)
Hourly Data Report for May 10, 2021
TIME
LST
Temp Definition
°C
Dew Point Definition
°C
Rel Hum Definition
%
Precip. Amount Definition
mm

Wind Dir Definition
10's deg

Wind Spd Definition
km/h
Visibility Definition
km
Stn Press Definition
kPa
Hmdx Definition


Wind Chill Definition


Weather Definition


00:00 8.0 -2.0 49 0.0       99.89     LegendNANA
01:00 7.0 -1.6 54 0.0       99.86     LegendNANA
02:00 6.2 -1.2 59 0.0       99.85     LegendNANA
03:00 5.4 -1.8 60 0.0       99.88     LegendNANA
04:00 4.8 -1.6 63 0.0       100.00     LegendNANA
05:00 4.1 -1.5 67 0.0       100.08     LegendNANA
06:00 4.4 -0.7 69 0.0       100.10     LegendNANA
07:00 6.5 0.5 66 0.0       100.10     LegendNANA
08:00 8.5 1.2 60 0.0       100.10     LegendNANA
09:00 10.1 1.5 55 0.0       100.11     LegendNANA
10:00 11.9 1.6 49 0.0       100.13     LegendNANA
11:00 12.8 1.5 46 0.0       100.17     LegendNANA
12:00 11.9 1.6 49 0.0       100.15     LegendNANA
13:00 14.4 2.1 43 0.0       100.14     LegendNANA
14:00 14.5 1.3 41 0.0       100.13     LegendNANA
15:00 14.4 -1.8 32 0.0       100.07     LegendNANA
16:00 13.2 -1.2 37 0.0       100.08     LegendNANA
17:00 12.2 0.7 45 0.0       100.20     LegendNANA
18:00 10.7 0.5 49 0.0       100.27     LegendNANA
19:00 10.1 0.1 50 0.0       100.29     LegendNANA
20:00 9.7 -2.3 43 0.0       100.36     LegendNANA
21:00 8.7 -4.1 40 0.0       100.43     LegendNANA
22:00 7.6 -3.2 46 0.0       100.44     LegendNANA
23:00 6.6 -2.8 51 0.0       100.42     LegendNANA

Notes on Data Quality.

Legend

  • E = Estimated
  • M = Missing
  • NA = Not Available*
  • [empty] = Indicates an unobserved value
Date modified: